Location: Isola Pescaroli
(45.0500°N, 10.1667°E)
Time: 02:11:29
(UTC+00:00)

SL-4 R/B - Pass Details

Date: 20 June 2021
Orbit: 428 x 662 km, 51.6° (Epoch: 29 July)

Event Time Altitude Azimuth Distance (km) Brightness Sun altitude
Rises 21:53:07 0° 239° (WSW) 2,761 5.5 -18.6°
Reaches altitude 10° 21:55:27 10° 240° (WSW) 1,825 4.6 -18.8°
Maximum altitude 21:59:35 88° 327° (NNW) 526 1.8 -19.0°
Drops below altitude 10° 22:03:25 10° 60° (ENE) 1,689 4.6 -19.3°
Sets 22:05:31 0° 61° (ENE) 2,536 5.5 -19.4°
